Location: São Paulo
(23.5507°S, 46.6334°W)
Time: 18:54:00
(UTC-03:00)

Tiros 1 despin weight - All Passes

Search period start: 17 February 2026 00:00
Search period end: 27 February 2026 00:00
Orbit: 557 x 594 km, 48.2° (Epoch: 16 February)

Date Brightness Start Highest point End Pass type
(mag) Time Alt. Az. Time Alt. Az. Time Alt. Az.
17 Feb - 01:52:00 10° NW 01:56:23 83° SW 02:00:49 10° SE visible
17 Feb - 03:35:48 10° SW 03:37:28 12° SSW 03:39:09 10° S visible
17 Feb - 10:22:39 10° SW 10:27:03 65° SE 10:31:20 10° NE daylight
17 Feb - 12:05:50 10° WNW 12:07:12 11° NW 12:08:33 10° NW daylight
18 Feb - 00:15:48 10° NNE 00:18:36 17° NE 00:21:26 10° E night (unlit)
18 Feb - 01:54:41 10° WNW 01:58:54 46° SW 02:03:10 10° SSE visible
18 Feb - 08:45:58 10° S 08:48:36 15° SE 08:51:12 10° ESE daylight
18 Feb - 10:25:08 10° SW 10:29:31 69° NW 10:33:49 10° NE daylight
19 Feb - 00:17:08 10° N 00:20:57 30° NE 00:24:49 10° ESE night (unlit)
19 Feb - 01:57:43 10° W 02:01:29 27° SW 02:05:18 10° SSE visible
19 Feb - 08:47:42 10° SSW 08:51:18 24° SE 08:54:51 10° E daylight
19 Feb - 10:27:52 10° WSW 10:31:55 36° NW 10:35:54 10° NNE daylight
20 Feb - 00:19:05 10° NNW 00:23:20 56° NE 00:27:39 10° SE night (unlit)
20 Feb - 02:01:11 10° WSW 02:04:09 17° SW 02:07:08 10° S visible
20 Feb - 08:49:44 10° SSW 08:53:54 39° SE 08:57:59 10° ENE daylight
20 Feb - 10:31:02 10° W 10:34:16 20° NW 10:37:27 10° N daylight
21 Feb - 00:21:26 10° NW 00:25:46 78° SW 00:30:11 10° SE night (unlit)
21 Feb - 02:05:28 10° SW 02:06:53 11° SSW 02:08:19 10° SSW visible
21 Feb - 07:14:31 10° SSE 07:15:13 10° SSE 07:15:55 10° SE daylight
21 Feb - 08:52:00 10° SW 08:56:25 69° SE 09:00:45 10° NE daylight
21 Feb - 10:35:31 10° WNW 10:36:34 11° NW 10:37:36 10° NW daylight
21 Feb - 22:45:04 10° N 22:47:57 18° NE 22:50:53 10° E night (unlit)
22 Feb - 00:24:07 10° WNW 00:28:15 43° SW 00:32:29 10° SSE night (unlit)
22 Feb - 07:15:13 10° S 07:17:58 16° SE 07:20:42 10° ESE daylight
22 Feb - 08:54:28 10° SW 08:58:51 65° NW 09:03:09 10° NE daylight
22 Feb - 22:46:27 10° NNW 22:50:16 32° NE 22:54:10 10° ESE night (unlit)
23 Feb - 00:27:09 10° W 00:30:49 26° SW 00:34:33 10° SSE night (unlit)
23 Feb - 07:16:56 10° SSW 07:20:37 25° SE 07:24:16 10° E daylight
23 Feb - 08:57:11 10° WSW 09:01:13 35° NW 09:05:11 10° NNE daylight
23 Feb - 22:48:23 10° NNW 22:52:38 59° NE 22:56:57 10° SE night (unlit)
24 Feb - 00:30:38 10° WSW 00:33:27 17° SW 00:36:19 10° S night (unlit)
24 Feb - 07:18:58 10° SSW 07:23:11 40° SE 07:27:20 10° ENE daylight
24 Feb - 09:00:22 10° W 09:03:32 19° NW 09:06:39 10° N daylight
24 Feb - 22:50:44 10° NW 22:55:02 75° SW 22:59:25 10° SE night (unlit)
25 Feb - 00:35:05 10° SW 00:36:11 11° SSW 00:37:16 10° SSW night (unlit)
25 Feb - 05:43:24 10° SSE 05:44:30 11° SSE 05:45:36 10° SE daylight
25 Feb - 07:21:13 10° SW 07:25:40 73° SE 07:30:02 10° NE daylight
25 Feb - 09:05:12 10° WNW 09:05:48 10° NW 09:06:24 10° NW daylight
25 Feb - 21:14:14 10° N 21:17:11 18° NE 21:20:11 10° E night (unlit)
25 Feb - 22:53:25 10° WNW 22:57:30 41° SW 23:01:40 10° SSE night (unlit)
26 Feb - 05:44:20 10° S 05:47:12 17° SE 05:50:04 10° ESE daylight
26 Feb - 07:23:40 10° SW 07:28:04 62° NW 07:32:23 10° NNE daylight
26 Feb - 21:15:38 10° NNW 21:19:28 33° NE 21:23:23 10° ESE night (unlit)
26 Feb - 22:56:27 10° W 23:00:02 25° SW 23:03:41 10° SSE night (unlit)
